Location: Allison Elementary School
(34.0784°N, 117.7317°W)
Time: 15:53:37
(UTC+00:00)

Cosmos 2369 - Pass Details

Date: 15 November 2019
Orbit: 838 x 858 km, 71.0° (Epoch: 05 December)

Event Time Altitude Azimuth Distance (km) Brightness Sun altitude
Rises 01:51:35 0° 197° (SSW) 3,376 7.3 -13.4°
Reaches altitude 10° 01:54:01 10° 197° (SSW) 2,447 6.5 -13.9°
Maximum altitude 01:59:38 84° 109° (ESE) 852 3.6 -15.0°
Drops below altitude 10° 02:05:19 10° 22° (NNE) 2,474 5.8 -16.2°
Enters shadow 02:06:19 - 22° (NNE) 2,857 6.1 -16.4°
